Location: Carrières
(48.9495°N, 2.0407°E)
Time: 11:51:53
(UTC+00:00)

Transit 2A Rocket - Pass Details

Date: 28 April 2024
Orbit: 584 x 909 km, 66.7° (Epoch: 25 May)

Event Time Altitude Azimuth Distance (km) Brightness Sun altitude
Rises 14:19:52 0° 315° (NW) 3,158 8.3 43.7°
Reaches altitude 10° 14:23:54 10° 346° (NNW) 2,322 7.4 43.2°
Maximum altitude 14:25:54 12° 9° (N) 2,224 7.2 42.9°
Drops below altitude 10° 14:27:59 10° 31° (NNE) 2,404 7.3 42.6°
Sets 14:32:20 0° 61° (ENE) 3,415 7.9 42.0°
